Regional Weather Roundup
Issued by NWS Grand Forks, ND

Home | Current Version | Previous Version | Graphics & Text | Print | Product List | Glossary On
Versions: 1 2 3 4 5 6 7 8 9 10 11 12 13 14 15 16 17 18 19 20 21 22 23 24 25 26 27 28 29 30 31 32 33 34 35 36 37 38 39 40 41 42 43 44 45 46 47 48 49 50
000
ASUS43 KFGF 271631
RWRFGF
PRAIRIE TO PINES  WEATHER ROUNDUP
NATIONAL WEATHER SERVICE EASTERN NORTH DAKOTA/GRAND FORKS ND
1100 AM CDT WED JUL 27 2016

 **SATELLITE DATA USED TO AUGMENT SKY COVER AT AUTOMATED STATIONS**
 *****  WEATHER ACROSS EASTERN NORTH DAKOTA  *****

CITY           SKY/WX    TMP DP  RH WIND       PRES   REMARKS
GRAND FORKS    MOSUNNY   71  59  65 N16       30.06S
GRAND FRKS AFB SUNNY     72  59  64 N14G20    30.07S
GRAND FRKS NWS   N/A     72 N/A N/A N21         N/A
DEVILS LAKE    PTSUNNY   66  57  72 NE14      30.12F
FARGO          SUNNY     73  57  57 N16       30.03S
WAHPETON ARPT  SUNNY     73  61  64 N8        30.01S
$$

 ***** WEATHER ACROSS CENTRAL AND WESTERN NORTH DAKOTA  *****

CITY           SKY/WX    TMP DP  RH WIND       PRES   REMARKS
BISMARCK       MOSUNNY   73  64  73 VRB5      30.11S
MINOT          MOSUNNY   73  60  63 VRB5      30.13F
JAMESTOWN      SUNNY     71  59  65 NE12      30.08S
MINOT AFB      CLOUDY    68  59  73 SE6       30.13F
GARRISON         N/A     71  63  75 SE7       30.13S
WILLISTON      CLOUDY    71  57  61 NE3       30.13S
DICKINSON      CLOUDY    65  60  84 E5        30.13S
HETTINGER      CLOUDY    68  61  78 E7        30.15S
$$

 *****  OTHER AIRPORT OBSERVATIONS IN OUR AREA  *****

CITY           SKY/WX    TMP DP  RH WIND       PRES   REMARKS
WALHALLA       FAIR      68  66  94 NE10      30.12S
GRAFTON AIRPOR FAIR      70  61  73 N15       30.09S
VALLEY CITY AR FAIR      72  59  64 NE10      30.09S
CANDO          CLOUDY    68  59  73 NE10      30.15F
CAVALIER APRT  FAIR      70  57  64 N12G17    30.10S
GWINNER        FAIR      73  61  64 N16       30.06R
ROLLA          FAIR      66  57  72 N13G23    30.16F
 ***** THE ABOVE OBSERVATIONS ARE NON NWS ARE NOT QUALITY
       CONTROLLED AND MAY MIS-REPORT RAIN FOR SNOW...
$$

  *****  WEATHER ACROSS NORTHERN MINNESOTA  *****

CITY           SKY/WX    TMP DP  RH WIND       PRES   REMARKS
FLAG ISLAND    MOSUNNY   70  57  64 NE12      30.07R
WARROAD        MOSUNNY   70  63  78 NE14      30.07S
ROSEAU         SUNNY     73  64  73 NE14      30.06S
HALLOCK        MOSUNNY   72  61  68 N14       30.07S
THF RVR FALLS  SUNNY     71  56  58 N13       30.05S
BAUDETTE       PTSUNNY   74  60  61 E6        30.04F
WASKISH        CLOUDY    72  61  68 E8        30.03S
CROOKSTON      SUNNY     72  61  68 N12G18    30.05S
STEPHEN NDAWN    N/A    N/A N/A N/A N10         N/A
GREENBUSH NDAW   N/A     72  63  73 N7          N/A
$$
  *****  WEATHER ACROSS CENTRAL AND WEST MINNESOTA  *****

CITY           SKY/WX    TMP DP  RH WIND       PRES   REMARKS
FOSSTON        MOSUNNY   72  59  64 N5        30.03F
BEMIDJI        CLOUDY    68  61  77 NE7       30.02R
PARK RAPIDS    CLOUDY    67  62  84 CALM      30.02R
ELBOW LAKE     PTSUNNY   71  66  83 NE6       30.00F
WADENA         CLOUDY    66  63  88 NW7       30.01S
DETROIT LAKES  MOSUNNY   70  61  73 N6        30.03R
MOORHEAD       SUNNY     72  61  68 N12       30.03S
FERGUS FALLS   MOSUNNY   73  64  73 NE8       30.01S
MORRIS MN      CLOUDY    72  66  83 NW7       30.00S
STAPLES        PTSUNNY   64  63  94 E3        30.00S
$$
  *****  WEATHER ELSEWHERE ACROSS MINNESOTA  *****

CITY           SKY/WX    TMP DP  RH WIND       PRES   REMARKS
DULUTH         CLOUDY    66  56  70 NE16G23   30.02R
INTRNTL FALLS  PTSUNNY   68  58  70 NE9       30.05S
ELY            DRIZZLE   64  61  88 E3        30.04S
CLOQUET        DRIZZLE   64  57  77 E6        30.03R
WHEATON        CLOUDY    73  68  83 N8        30.02S
BRAINERD       LGT RAIN  65  63  93 NW3       30.02R FOG
HIBBING        LGT RAIN  62  59  90 NE6       30.03F FOG
ALEXANDRIA     CLOUDY    69  64  84 N6        30.02S
SAINT CLOUD    CLOUDY    72  69  90 N7        29.97R
MINNEAPOLIS    CLOUDY    79  68  69 SE5       29.95F
$$

  *****  WEATHER ACROSS SOUTH DAKOTA  *****

CITY           SKY/WX    TMP DP  RH WIND       PRES   REMARKS
SIOUX FALLS    MOSUNNY   80  69  69 NW6       30.01R
BROOKINGS      MOSUNNY   73  64  73 N12       30.01R
WATERTOWN      MOSUNNY   76  64  66 N12       30.04R
HURON          SUNNY     77  65  66 N14       30.02R
SISSETON         N/A     73  65  75 N8        30.01R
ABERDEEN       MOSUNNY   73  65  75 N12       30.06R
MITCHELL       SUNNY     80  65  59 NW9       30.02R
PIERRE         SUNNY     78  64  61 N12       30.04F
MOBRIDGE       CLOUDY    71  62  73 N6        30.08S
RAPID CITY     CLOUDY    72  61  68 NE7       30.09F
$$

  *****  SOME WEATHER IN NEARBY STATES *****

CITY           SKY/WX    TMP DP  RH WIND       PRES   REMARKS
GLASGOW MT     PTSUNNY   65  62  90 NE6       30.13S
GREAT FALLS MT SUNNY     69  54  58 N7        30.20R
CHEYENNE WY    SUNNY     70  53  54 N10G17    30.27F
SCOTTSBLUFF NE MOSUNNY   74  60  61 E3        30.16R
OMAHA NE       MOSUNNY   82  69  64 S13       29.98F
DES MOINES IA  CLOUDY    80  68  66 S8        30.00S
DAVENPORT IA   SUNNY     81  69  67 NE6       30.03S
CHICAGO IL     MOSUNNY   85  63  47 CALM      30.01R
EAU CLAIRE WI  CLOUDY    77  68  73 SE6       29.99F
LA CROSSE WI   MOSUNNY   84  68  58 VRB3      30.00S
$$

  *****  SOME NATIONAL WEATHER *****

CITY           SKY/WX    TMP DP  RH WIND       PRES   REMARKS
LA GUARDIA NY  MOSUNNY   86  62  44 NE6       29.94F
RALEIGH NC     PTSUNNY   88  76  67 VRB3      30.00R HX  99
ATLANTA GA     PTSUNNY   83  70  64 W8        30.10S
NEW ORLEANS LA CLOUDY    81  73  76 CALM      30.06R
OKLAHOMA CITY  PTSUNNY   85  70  60 SW5       30.01R
ALBUQUERQUE NM MOSUNNY   79  58  48 VRB3      30.25S
SALT LAKE CITY SUNNY     86  39  19 S5        30.13R
LOS ANGELES CA MOSUNNY   74  65  73 W7        29.93R
BOISE ID       SUNNY     81  43  26 VRB3      30.06S HAZE
SEATTLE WA     MOSUNNY   64  59  83 W8        30.16R
$$

*** WEATHER ACROSS MANITOBA...SASKATCHEWAN AND ONTARIO ***
                ***ONTARIO***

CITY           SKY/WX    TMP DP  RH WIND       PRES   REMARKS
GERALDTON      MOSUNNY   64  50  59 NW9       30.03F
THUNDER BAY    PTSUNNY   70  57  64 S3        30.04S
SIOUX LOOKOUT  PTSUNNY   63  54  72 N7        30.11F
TORONTO        MOSUNNY   90  63  40 W14G22    29.93F HX  90
BIG TROUT LK   NOT AVBL
PICKLE LAKE    PTSUNNY   63  46  55 NW8       30.11S
DRYDEN         PTSUNNY   66  54  63 E7        30.10F
KENORA         PTSUNNY   68  57  68 NE9       30.10S
$$
                *** MANITOBA***

CITY           SKY/WX    TMP DP  RH WIND       PRES   REMARKS
BRANDON        PTSUNNY   66  57  72 NE12      30.16F
DAUPHIN        CLOUDY    64  57  77 N6        30.18S
ISLAND LAKE    PTSUNNY   63  52  67 N5        30.18F
PILOT MOUND      N/A     66  57  72 N9          N/A
THE PAS        MOSUNNY   70  52  52 S6        30.17F
THOMPSON       MOSUNNY   64  50  59 NW6       30.16F
WINNIPEG       PTSUNNY   68  57  68 NE9       30.12S
LYNN LAKE      CLOUDY    72  48  43 MISG      30.10F
CHURCHILL      MOSUNNY   59  48  67 N5        30.13F
GILLAM         PTSUNNY   61  48  63 W6        30.16S
$$
                ***SASKATCHEWAN***

CITY           SKY/WX    TMP DP  RH WIND       PRES   REMARKS
ESTEVAN        MOSUNNY   70  59  68 E9        30.14F
KINDERSLEY     MOSUNNY   70  57  64 SE7       30.17S
LLOYDMINSTER   PTSUNNY   68  61  77 S8        30.15S
PRINCE ALBERT  MOSUNNY   72  57  60 NW6       30.16F
REGINA         PTSUNNY   70  57  64 VRB3      30.17F
YORKTON        SUNNY     66  54  63 E6        30.18F
N. BATTLEFORD  SUNNY     73  54  49 S8        30.18F
LA RONGE       PTSUNNY   64  61  88 SE6       30.10S
SASKATOON      MOSUNNY   70  54  56 SW3       30.19S
SWIFT CURRENT  PTSUNNY   68  57  68 E10       30.17S
$$
NOTE: THESE ARE AUTOMATED STATIONS WITH LIMITED QUALITY CONTROL
      "FAIR" INDICATES FEW OR NO CLOUDS BELOW 12,000 FEET WITH NO
      SIGNIFICANT WEATHER AND/OR OBSTRUCTIONS TO VISIBILITY.
      SKY/WX - SKY CONDITION AND SIGNIFICANT WEATHER.
      TMP - AIR TEMPERATURE.    DP   - DEWPOINT TEMPERATURE.
      RH  - RELATIVE HUMIDITY.  PRES - PRESSURE.
      HX  - HEAT INDEX.         WCI  - WIND CHILL INDEX.
$




USA.gov is the U.S. government's official web portal to all federal, state and local government web resources and services.